Location: Minneapolis
(45.0000°N, 93.0000°W)
Time: 23:53:58
(UTC-06:00)

ISS - Visible Passes

Search period start: 14 January 2026 00:00
Search period end: 24 January 2026 00:00
Orbit: 414 x 424 km, 51.6° (Epoch: 14 January)

Date Brightness Start Highest point End Pass type
(mag) Time Alt. Az. Time Alt. Az. Time Alt. Az.
14 Jan -3.8 18:35:06 10° WSW 18:38:25 82° NNW 18:39:05 54° NE visible
15 Jan -3.6 17:47:25 10° SW 17:50:43 64° SSE 17:53:24 15° ENE visible
15 Jan -1.5 19:24:38 10° W 19:26:21 23° WNW 19:26:21 23° WNW visible
16 Jan -2.9 18:36:39 10° W 18:39:50 41° NNW 18:40:37 34° NNE visible
17 Jan -3.4 17:48:44 10° WSW 17:52:01 56° NNW 17:54:51 13° NE visible
17 Jan -1.3 19:26:25 10° WNW 19:27:47 19° NW 19:27:47 19° NW visible
18 Jan -2.4 18:38:24 10° WNW 18:41:21 28° N 18:41:59 26° NNE visible
19 Jan -2.6 17:50:22 10° W 17:53:26 33° NNW 17:56:09 12° NE visible
19 Jan -1.2 19:27:58 10° NW 19:29:06 17° NW 19:29:06 17° NW visible
20 Jan -2.3 18:40:02 10° WNW 18:42:52 25° N 18:43:15 24° NNE visible
21 Jan -2.3 17:52:02 10° WNW 17:54:54 26° N 17:57:25 12° NE visible
21 Jan -1.3 19:29:14 10° NW 19:30:22 18° NW 19:30:22 18° NW visible
22 Jan -2.6 18:41:24 10° NW 18:44:21 28° N 18:44:33 28° NNE visible
23 Jan -2.4 17:53:29 10° NW 17:56:21 26° N 17:58:46 13° ENE visible
23 Jan -1.6 19:30:18 10° NW 19:31:43 23° NW 19:31:43 23° NW visible
